Regional Weather Roundup
Issued by NWS

Home | Current Version | Previous Version | Graphics & Text | Print | Product List | Glossary Off
Versions: 1 2 3 4 5 6 7 8 9 10 11 12 13 14 15 16 17 18 19 20 21 22 23 24 25 26 27 28 29 30 31 32 33 34 35 36 37 38 39 40 41 42 43 44 45 46 47 48 49 50

000
ASUS43 KDMX 231706
RWRIA

WEATHER ROUNDUP FOR IOWA
NATIONAL WEATHER SERVICE DES MOINES IA
1200 PM CDT FRI JUN 23 2017

NOTE: "FAIR" INDICATES FEW OR NO CLOUDS BELOW 12,000 FEET WITH NO
SIGNIFICANT WEATHER AND/OR OBSTRUCTIONS TO VISIBILITY.

* - THESE STATIONS ARE NOT NWS STATIONS...THUS NOT UNDER NWS
QUALITY CONTROL.  THEY ALSO DO NOT REPORT WEATHER SUCH
AS PRECIPITATION OR FOG.

IAZ001>003-012>014-020>022-031>034-043>046-231800-
   NORTHWEST IOWA

CITY           SKY/WX    TMP DP  RH WIND       PRES   REMARKS
CARROLL *      MOSUNNY   73  52  46 NW22G28   29.95R
CHEROKEE *     CLOUDY    64  53  66 NW14G22   29.98S
DENISON *      CLOUDY    64  52  63 NW15G28   30.01R
LE MARS *      PTSUNNY   64  52  63 NW15G22   30.01R
ORANGE CITY *  CLOUDY    63  52  67 NW16G28   29.98F
SHELDON *      CLOUDY    64  52  63 NW18G25   29.95F
SIOUX CITY     CLOUDY    64  52  64 NW20G29   30.00R
SPENCER        CLOUDY    67  52  58 NW18G28   29.95R
STORM LAKE *   PTSUNNY   64  52  63 NW23G31   29.97R
$$

IAZ055>058-069>071-079>083-090>094-231800-
   SOUTHWEST IOWA

CITY           SKY/WX    TMP DP  RH WIND       PRES   REMARKS
ATLANTIC *     CLOUDY    66  54  63 NW18G24   29.98R
AUDUBON *      CLOUDY    66  54  63 NW10G24   29.98R
CLARINDA *     CLOUDY    73  52  46 N17G25    29.99R
COUNCIL BLFS * CLOUDY    66  50  55 NW17G26   30.03R
CRESTON *      CLOUDY    73  48  40 NW23G32   29.95R
HARLAN  *      CLOUDY    66  52  59 NW15G24   30.02R
LAMONI         MOSUNNY   79  56  45 NW17G24   29.90R HX  80
RED OAK *      CLOUDY    68  52  56 NW16G24   30.00R
SHENANDOAH *   CLOUDY    70  52  52 NW16G26   30.01R
$$

IAZ047>049-059>061-072>074-084-231800-
   CENTRAL IOWA

CITY           SKY/WX    TMP DP  RH WIND       PRES   REMARKS
AMES           MOSUNNY   74  52  46 NW21      29.88S
ANKENY *       MOSUNNY   75  50  41 NW20G29   29.89R
BOONE *        CLOUDY    72  54  53 N23       29.89R
CHARITON *     SUNNY     77  55  47 NW14G22   29.88R
DES MOINES     PTSUNNY   77  51  40 W22       29.87S
GRINNELL*      SUNNY     76  55  48 W15G21    29.85S
KNOXVILLE *    SUNNY     75  54  46 NW17      29.85S
MARSHALLTOWN   SUNNY     73  55  53 NW18      29.85R
NEWTON *       SUNNY     75  54  46 W14       29.86R
PELLA *        SUNNY     78  57  49 NW12G18   29.86S
PERRY *          N/A     72  53  51 NW17G25   29.92R
$$

IAZ004>006-015-016-023>025-035-036-231800-
   NORTH CENTRAL IOWA

CITY           SKY/WX    TMP DP  RH WIND       PRES   REMARKS
ALGONA *       PTSUNNY   68  54  60 NW23G29   29.90F
CLARION *        N/A     68  55  64 NW20G29   29.89R
ESTHERVILLE    CLOUDY    65  54  67 NW20G28   29.92R
FORT DODGE *   PTSUNNY   66  52  59 NW14      29.92S
MASON CITY     CLOUDY    67  52  58 NW20G30   29.89R
FOREST CITY *  CLOUDY    68  46  45 NW21      29.88R
WEBSTER CITY * PTSUNNY   70  54  56 NW21G29   29.88S
IOWA FALLS *     N/A     70  55  59 W17G25    29.89R
$$

IAZ007>011-017>019-026>030-037>042-050>054-066-231800-
   NORTHEAST IOWA

CITY           SKY/WX    TMP DP  RH WIND       PRES   REMARKS
CEDAR RAPIDS   MOSUNNY   77  62  59 W13       29.80R
CHARLES CITY * MOSUNNY   70  54  56 NW20G28   29.84R
CLINTON *      SUNNY     76  64  66 W9        29.77S
DECORAH *      SUNNY     70  52  52 NW10G26   29.78S
DUBUQUE        SUNNY     77  56  48 W16       29.78S
MONTICELLO *   SUNNY     77  59  53 W14G21    29.78S
OELWEIN *      SUNNY     72  57  60 W18G24    29.81S
WATERLOO       SUNNY     73  52  47 NW20G30   29.81R
$$

IAZ064-065-067-068-078-231800-
   EAST CENTRAL IOWA

CITY           SKY/WX    TMP DP  RH WIND       PRES   REMARKS
DAVENPORT      SUNNY     76  62  62 NW8       29.78S
IOWA CITY      SUNNY     80  57  45 W12       29.81R HX  80
MT. PLEASANT * SUNNY     78  60  55 NW10G17   29.82R
MUSCATINE *    SUNNY     79  57  47 N10       29.80R HX  80
QUAD CITIES    SUNNY     79  59  50 N9        29.77R HX  80
$$

IAZ062-063-075>077-085>089-095>099-231800-
   SOUTHEAST IOWA

CITY           SKY/WX    TMP DP  RH WIND       PRES   REMARKS
BURLINGTON     SUNNY     80  60  50 N8        29.79R HX  81
FAIRFIELD *    SUNNY     79  55  44 NW12G21   29.83R
FORT MADISON * SUNNY     79  59  50 N8        29.82R HX  80
KEOKUK *       SUNNY     79  61  53 N9        29.81R HX  80
OSKALOOSA *      N/A     78  58  50 NW14      29.85S
CENTERVILLE *    N/A     77  57  50 NW13      29.87F
OTTUMWA        SUNNY     80  57  45 NW10      29.84R HX  80
WASHINGTON *   SUNNY     79  59  50 NW13      29.82S HX  80
$$

ABBREVIATIONS USED IN REMARKS
   TC - TEMPERATURES IN CELSIUS
  WCI - WIND CHILL INDEX
   HX - HEAT INDEX
  VSB - VISIBILITY
$$





USA.gov is the U.S. government's official web portal to all federal, state and local government web resources and services.